Location: Dennehotso
(36.8461°N, 109.8435°W)
Time: 20:11:32
(UTC+00:00)

N. Korean satellite - Pass Details

Date: 04 March 2021
Orbit: 452 x 499 km, 97.2° (Epoch: 15 April)

Event Time Altitude Azimuth Distance (km) Brightness Sun altitude
Rises 12:51:04 0° 8° (N) 2,529 10.3 -11.7°
Reaches altitude 10° 12:53:07 10° 5° (N) 1,655 9.3 -11.3°
Maximum altitude 12:56:39 65° 284° (WNW) 534 6.5 -10.6°
Drops below altitude 10° 13:00:12 10° 202° (SSW) 1,668 9.1 -9.9°
Sets 13:02:17 0° 199° (SSW) 2,552 10.0 -9.5°
